INMARSAT 4-F2

Last updated on Mon Jul 07 2025 00:02:43 GMT+0000 (Coordinated Universal Time)

1 28899U 05044A 25187.59722184 -.00000248 00000+0 00000+0 0 9993 2 28899 4.6457 43.5257 0002181 64.4342 175.3471 1.00271679 72050
UTC large
Height (km)
Speed (km/s)
/
Latitude / Longitude
Inclination (degrees)
Orbital Period (minutes)
Azimuth
Elevation
Range (km)
Doppler Factor

Next 0 passes for location: London (51.5072 / 0.1276)

Sorry there are no passes over London.